Regional Weather Roundup
Issued by NWS

Home | Current Version | Previous Version | Graphics & Text | Print | Product List | Glossary On
Versions: 1 2 3 4 5 6 7 8 9 10 11 12 13 14 15 16 17 18 19 20 21 22 23 24 25 26 27 28 29 30 31 32 33 34 35 36 37 38 39 40 41 42 43 44 45 46 47 48 49 50
000
ASUS43 KIND 281359
RWRIN

WEATHER ROUNDUP FOR INDIANA
NATIONAL WEATHER SERVICE INDIANAPOLIS IN
1000 AM EDT WED SEP 28 2016

NOTE: "FAIR" INDICATES FEW OR NO CLOUDS BELOW 12,000 FEET WITH NO
SIGNIFICANT WEATHER AND/OR OBSTRUCTIONS TO VISIBILITY.

* - STATION DOES NOT REPORT WEATHER SUCH AS PRECIPITATION OR FOG.

+ - STATION NOT QUALITY CONTROLLED BY THE NATIONAL WEATHER SERVICE.
    USE DATA WITH CAUTION...ESPECIALLY DEWPOINT AND RELATIVE
    HUMIDITY OBSERVATIONS.

INZ001>003-010>013-019-020-281500-
NORTHWEST INDIANA

CITY           SKY/WX    TMP DP  RH WIND       PRES   REMARKS
GARY /AIRPORT/ PTSUNNY   55  52  88 NW14      29.84R

$$

LMZ046-743>745-281500-
SOUTHERN LAKE MICHIGAN

STATION/POSITION TIME  TEMP    WIND        PRES    WAVE
                       AIR SEA DIR/SP/G            HT
                 (UTC) (F)     (DEG/KT/KT) (MB)    (FT)
BURNS HARBOR     1340   58      10/ 13/ 17 1010.2R
MICHIGAN CITY    1330   57      10/ 16/ 18   N/A
5NW MICH CITY    1350   59 66   20/ 14/ 19   N/A     4

$$

INZ004-005-014>016-021>024-281500-
NORTH CENTRAL INDIANA

CITY           SKY/WX    TMP DP  RH WIND       PRES   REMARKS
ELKHART        CLOUDY   N/A N/A N/A NE9       29.82R
GOSHEN         LGT RAIN  52  46  80 E6        29.81R
SOUTH BEND     CLOUDY    55  51  86 NE7       29.83R

$$

INZ006>009-017-018-025>027-281500-
NORTHEAST INDIANA

CITY           SKY/WX    TMP DP  RH WIND       PRES   REMARKS
ANGOLA *+        N/A     54  43  66 SE6       29.82R
FORT WAYNE     LGT RAIN  57  52  83 CALM      29.83R
KENDALLVILLE + CLOUDY    55  48  79 SE5       29.83R

$$

INZ028-029-035-036-043>045-051>053-281500-
WEST CENTRAL INDIANA

CITY           SKY/WX    TMP DP  RH WIND       PRES   REMARKS
CRAWFORDSVL +  LGT RAIN  53  53 100 CALM      29.78R
GREENCASTLE +  CLOUDY    57  57 100 E3        29.80R
LAFAYETTE      MOSUNNY   55  51  86 N3        29.80R
TERRE HAUTE    CLOUDY    61  54  77 CALM      29.78R

$$

INZ030>032-037>040-046>048-054>057-064-065-281500-
CENTRAL INDIANA

CITY           SKY/WX    TMP DP  RH WIND       PRES   REMARKS
ANDERSON       LGT RAIN  57  55  94 NW6       29.85R
COLUMBUS       PTSUNNY   57  57 100 CALM      29.81R
INDIANAPOLIS   TSTM      59  56  89 E8        29.79F
-EAGLE CREEK   LGT RAIN  58  55  90 E8        29.78F
MT COMFORT *+  CLOUDY    57  55  94 N6        29.82S
SHELBYVILLE    CLOUDY    59  55  87 SE3       29.80R

$$

INZ033-034-041-042-049-050-058-059-281500-
EAST CENTRAL INDIANA

CITY           SKY/WX    TMP DP  RH WIND       PRES   REMARKS
MUNCIE         PTSUNNY   59  53  80 W3        29.83R

$$

INZ060-061-067>069-081>083-085>088-281500-
SOUTHWEST INDIANA

CITY           SKY/WX    TMP DP  RH WIND       PRES   REMARKS
EVANSVILLE     CLOUDY    63  52  67 SW7       29.81R
HUNTINGBURG *+   N/A     63  50  63 S8        29.80S

$$

INZ062-063-066-070>080-084-089>092-281500-
SOUTH CENTRAL AND SOUTHEAST INDIANA

CITY           SKY/WX    TMP DP  RH WIND       PRES   REMARKS
BLOOMINGTON    CLOUDY    61  53  75 CALM      29.79R
MADISON *+     PTSUNNY   64  48  55 S13G20    29.83R
SEYMOUR +      CLOUDY    64  52  63 CALM      29.80R

$$




USA.gov is the U.S. government's official web portal to all federal, state and local government web resources and services.